DW3588 Weather Reports


Display with metric or nautical units.
time (UTC)temp
F
wind
direction
speed
MPH
gust
MPH
rain 1hr
in
rain 24hr
in
rain mn
in
humidity
%
barometer
mb
20260509043526 68 229 2.0 4.0 0.00 0.00 0.00 56 1013.5
20260509043023 69 229 2.0 7.0 0.00 0.00 0.00 56 1013.5
20260509042524 69 240 2.0 7.0 0.00 0.00 0.00 55 1013.5
20260509042023 69 227 3.0 9.0 0.00 0.00 0.00 54 1013.5
20260509041521 70 230 5.0 9.0 0.00 0.00 0.00 54 1013.4
20260509041021 70 277 5.0 9.0 0.00 0.00 0.00 54 1013.3
20260509040516 70 265 4.0 9.0 0.00 0.00 0.00 54 1013.4
20260509040017 70 269 2.0 6.0 0.00 0.00 0.00 53 1013.4
20260509035516 71 265 2.0 6.0 0.00 0.00 0.00 53 1013.4
20260509035016 71 265 1.0 4.0 0.00 0.00 0.00 53 1013.4
20260509034513 71 265 2.0 8.0 0.00 0.00 0.00 52 1013.3
20260509034014 71 265 3.0 8.0 0.00 0.00 0.00 52 1013.4
20260509033742 72 292 4.0 9.0 0.00 0.00 0.00 51 1013.3
20260509033012 72 263 4.0 9.0 0.00 0.00 0.00 51 1013.2
20260509032513 72 259 4.0 8.0 0.00 0.00 0.00 51 1013.2
20260509032009 72 270 4.0 12.0 0.00 0.00 0.00 51 1013.2
20260509031508 73 269 4.0 12.0 0.00 0.00 0.00 51 1013.1
20260509031010 73 268 4.0 9.0 0.00 0.00 0.00 51 1013.2
20260509030507 73 254 3.0 9.0 0.00 0.00 0.00 51 1013.1
20260509030226 74 267 3.0 8.0 0.00 0.00 0.00 51 1013.1
20260509025507 74 252 3.0 8.0 0.00 0.00 0.00 51 1013.1
20260509025007 74 271 4.0 9.0 0.00 0.00 0.00 50 1013.1
20260509024729 74 280 4.0 9.0 0.00 0.00 0.00 50 1013.1
20260509024005 75 240 4.0 8.0 0.00 0.00 0.00 50 1013.1
20260509023505 75 269 3.0 8.0 0.00 0.00 0.00 50 1013.1
20260509023004 75 270 3.0 7.0 0.00 0.00 0.00 50 1013.1
20260509022730 76 259 3.0 7.0 0.00 0.00 0.00 49 1013.1
20260509022004 76 269 3.0 8.0 0.00 0.00 0.00 49 1012.9
20260509021716 76 231 4.0 9.0 0.00 0.00 0.00 49 1013.0
20260509020955 77 250 5.0 9.0 0.00 0.00 0.00 48 1013.1
20260509020455 77 275 5.0 9.0 0.00 0.00 0.00 48 1013.1
20260509015953 77 241 5.0 9.0 0.00 0.00 0.00 48 1013.0
20260509015445 78 290 5.0 10.0 0.00 0.00 0.00 48 1013.1
20260509014940 78 288 6.0 12.0 0.00 0.00 0.00 48 1013.1
20260509014436 79 308 6.0 12.0 0.00 0.00 0.00 47 1013.2
20260509013935 79 307 7.0 12.0 0.00 0.00 0.00 47 1013.2
20260509013433 80 265 6.0 12.0 0.00 0.00 0.00 46 1013.2
20260509012929 80 259 6.0 11.0 0.00 0.00 0.00 46 1013.2
20260509012429 81 261 6.0 11.0 0.00 0.00 0.00 46 1013.2
20260509011928 81 268 6.0 12.0 0.00 0.00 0.00 45 1013.3
20260509011646 82 263 6.0 14.0 0.00 0.00 0.00 45 1013.2
20260509010925 82 286 6.0 14.0 0.00 0.00 0.00 44 1013.2
20260509010424 82 264 6.0 12.0 0.00 0.00 0.00 43 1013.1
20260509010150 83 294 6.0 11.0 0.00 0.00 0.00 43 1013.2
20260509005424 83 325 6.0 12.0 0.00 0.00 0.00 43 1013.2
20260509005420 83 243 7.0 12.0 0.00 0.00 0.00 42 1013.1
20260509004417 83 259 6.0 12.0 0.00 0.00 0.00 41 1013.2
20260509003917 84 240 5.0 11.0 0.00 0.00 0.00 41 1013.2
20260509003418 84 256 5.0 11.0 0.00 0.00 0.00 41 1013.2
20260509002917 84 275 5.0 11.0 0.00 0.00 0.00 41 1013.2
20260509002416 85 292 5.0 10.0 0.00 0.00 0.00 41 1013.2
20260509001914 85 259 5.0 10.0 0.00 0.00 0.00 41 1013.3
20260509001414 85 239 5.0 10.0 0.00 0.00 0.00 40 1013.4
20260509000914 85 268 5.0 10.0 0.00 0.00 0.00 40 1013.3
20260509000413 85 304 4.0 9.0 0.00 0.00 0.00 39 1013.3
20260509000146 85 266 4.0 10.0 0.00 0.00 0.00 39 1013.3
20260508235413 85 286 5.0 10.0 0.00 0.00 0.00 39 1013.3
20260508234914 85 255 5.0 10.0 0.00 0.00 0.00 39 1013.4
20260508234614 86 304 4.0 10.0 0.00 0.00 0.00 38 1013.5
20260508234500 86 290 4.0 9.0 0.00 0.00 0.00 39 1013.4
20260508233413 86 315 5.0 10.0 0.00 0.00 0.00 37 1013.6
20260508232910 86 243 5.0 10.0 0.00 0.00 0.00 38 1013.7
20260508232632 86 265 5.0 10.0 0.00 0.00 0.00 38 1013.8
20260508231909 86 282 5.0 10.0 0.00 0.00 0.00 38 1013.8
20260508231409 87 313 4.0 10.0 0.00 0.00 0.00 37 1013.8
20260508230909 87 232 3.0 9.0 0.00 0.00 0.00 37 1013.9
20260508230410 87 273 4.0 9.0 0.00 0.00 0.00 37 1013.9
20260508225908 87 210 4.0 10.0 0.00 0.00 0.00 37 1014.0
20260508225406 87 267 3.0 10.0 0.00 0.00 0.00 37 1014.1
20260508224906 86 257 3.0 8.0 0.00 0.00 0.00 36 1014.1
20260508224626 86 355 5.0 12.0 0.00 0.00 0.00 35 1014.2
20260508223904 86 279 6.0 12.0 0.00 0.00 0.00 36 1014.2
20260508223403 86 311 5.0 11.0 0.00 0.00 0.00 35 1014.4
20260508222901 86 290 5.0 11.0 0.00 0.00 0.00 35 1014.4
20260508222402 86 331 4.0 11.0 0.00 0.00 0.00 36 1014.5
20260508221900 86 329 3.0 9.0 0.00 0.00 0.00 35 1014.6
20260508221835 87 343 4.0 9.0 0.00 0.00 0.00 35 1014.6
20260508220859 87 14 5.0 12.0 0.00 0.00 0.00 35 1014.7
20260508220355 87 240 5.0 12.0 0.00 0.00 0.00 37 1014.7
20260508215848 87 277 4.0 9.0 0.00 0.00 0.00 37 1014.8
20260508215319 87 325 5.0 10.0 0.00 0.00 0.00 35 1014.8
20260508214817 87 314 5.0 10.0 0.00 0.00 0.00 35 1014.9
20260508214316 88 251 4.0 8.0 0.00 0.00 0.00 36 1014.9
20260508213814 87 351 4.0 10.0 0.00 0.00 0.00 36 1015.0
20260508213308 86 302 3.0 10.0 0.00 0.00 0.00 36 1015.0
20260508212809 86 11 3.0 8.0 0.00 0.00 0.00 37 1015.0
20260508212309 87 344 4.0 8.0 0.00 0.00 0.00 36 1015.1
20260508211808 85 317 3.0 8.0 0.00 0.00 0.00 38 1015.2
20260508211529 85 81 3.0 7.0 0.00 0.00 0.00 39 1015.2
20260508211029 86 280 4.0 11.0 0.00 0.00 0.00 35 1015.4
20260508210308 86 273 5.0 11.0 0.00 0.00 0.00 35 1015.4
20260508205809 85 317 4.0 9.0 0.00 0.00 0.00 37 1015.5
20260508205309 85 330 4.0 9.0 0.00 0.00 0.00 40 1015.5
20260508204809 85 50 3.0 8.0 0.00 0.00 0.00 37 1015.5
20260508204310 85 238 3.0 10.0 0.00 0.00 0.00 38 1015.6
20260508203804 85 316 4.0 10.0 0.00 0.00 0.00 36 1015.7
20260508203303 86 202 3.0 8.0 0.00 0.00 0.00 36 1015.6
20260508202803 85 258 3.0 8.0 0.00 0.00 0.00 36 1015.7
20260508202307 84 98 4.0 7.0 0.00 0.00 0.00 36 1015.7
20260508202023 85 311 4.0 9.0 0.00 0.00 0.00 36 1015.7
20260508201305 85 285 3.0 9.0 0.00 0.00 0.00 36 1015.8
20260508200800 83 71 2.0 8.0 0.00 0.00 0.00 37 1015.8
20260508200311 84 298 3.0 9.0 0.00 0.00 0.00 36 1015.9
20260508200021 83 328 4.0 9.0 0.00 0.00 0.00 37 1016.0
20260508195259 83 308 4.0 9.0 0.00 0.00 0.00 38 1016.1
20260508194758 83 347 3.0 7.0 0.00 0.00 0.00 38 1016.1
20260508194257 83 284 3.0 7.0 0.00 0.00 0.00 38 1016.2
20260508193757 82 355 3.0 5.0 0.00 0.00 0.00 38 1016.2
20260508193257 83 355 3.0 9.0 0.00 0.00 0.00 37 1016.2
20260508192745 82 319 3.0 9.0 0.00 0.00 0.00 38 1016.2
20260508192245 83 306 3.0 8.0 0.00 0.00 0.00 38 1016.2
20260508191743 83 265 3.0 9.0 0.00 0.00 0.00 36 1016.4
20260508191506 83 273 3.0 9.0 0.00 0.00 0.00 38 1016.4
20260508190737 83 291 3.0 8.0 0.00 0.00 0.00 37 1016.5
20260508190500 82 227 3.0 8.0 0.00 0.00 0.00 39 1016.4
20260508185735 81 292 2.0 7.0 0.00 0.00 0.00 38 1016.5
20260508185234 81 309 2.0 8.0 0.00 0.00 0.00 40 1016.6
20260508184734 81 90 2.0 8.0 0.00 0.00 0.00 40 1016.5
20260508184233 80 271 3.0 9.0 0.00 0.00 0.00 41 1016.6
20260508183731 80 312 3.0 9.0 0.00 0.00 0.00 40 1016.6
20260508183229 80 5 3.0 9.0 0.00 0.00 0.00 41 1016.7
20260508182726 80 263 3.0 9.0 0.00 0.00 0.00 40 1016.8
20260508182226 79 307 2.0 9.0 0.00 0.00 0.00 41 1016.8
20260508181724 79 273 2.0 5.0 0.00 0.00 0.00 42 1016.7
20260508181225 77 298 2.0 8.0 0.00 0.00 0.00 41 1016.9
20260508180946 77 281 2.0 8.0 0.00 0.00 0.00 44 1016.9
20260508180223 77 291 2.0 9.0 0.00 0.00 0.00 43 1016.9
20260508180205 77 324 3.0 9.0 0.00 0.00 0.00 43 1016.9
20260508175219 76 261 3.0 7.0 0.00 0.00 0.00 44 1016.9
20260508174936 76 248 2.0 6.0 0.00 0.00 0.00 45 1016.9
20260508174215 75 319 3.0 6.0 0.00 0.00 0.00 45 1016.9
20260508173933 74 302 3.0 8.0 0.00 0.00 0.00 46 1017.0
20260508173436 74 269 3.0 8.0 0.00 0.00 0.00 46 1017.1
20260508172710 74 321 3.0 8.0 0.00 0.00 0.00 46 1017.0
20260508172209 73 282 3.0 8.0 0.00 0.00 0.00 45 1017.0
20260508171705 73 332 4.0 9.0 0.00 0.00 0.00 46 1017.0
20260508171431 73 294 5.0 10.0 0.00 0.00 0.00 46 1016.9
20260508170704 72 0 4.0 10.0 0.00 0.00 0.00 47 1017.0
20260508170203 71 300 4.0 9.0 0.00 0.00 0.00 46 1017.0
20260508165933 71 5 4.0 9.0 0.00 0.00 0.00 47 1017.0
20260508165158 70 300 3.0 9.0 0.00 0.00 0.00 47 1017.0
20260508164658 69 74 3.0 7.0 0.00 0.00 0.00 54 1017.0
20260508164200 68 9 3.0 7.0 0.00 0.00 0.00 53 1017.0
20260508164140 68 103 1.0 4.0 0.00 0.00 0.00 57 1016.9
20260508163157 66 69 2.0 5.0 0.00 0.00 0.00 59 1016.9
20260508162657 65 64 2.0 5.0 0.00 0.00 0.00 58 1016.9
20260508162154 64 49 2.0 5.0 0.00 0.00 0.00 60 1016.9
20260508161654 63 60 2.0 5.0 0.00 0.00 0.00 63 1016.9
20260508161147 63 342 2.0 5.0 0.00 0.00 0.00 63 1016.9
20260508160644 62 0 2.0 5.0 0.00 0.00 0.00 64 1017.0
20260508160142 61 46 2.0 4.0 0.00 0.00 0.00 65 1016.9
20260508155642 61 12 1.0 4.0 0.00 0.00 0.00 66 1016.9
20260508155142 60 62 2.0 4.0 0.00 0.00 0.00 67 1016.9
20260508154643 60 53 1.0 4.0 0.00 0.00 0.00 68 1016.9
20260508154141 59 55 1.0 4.0 0.00 0.00 0.00 69 1016.9
20260508153959 59 295 1.0 3.0 0.00 0.00 0.00 69 1017.0
20260508153854 58 153 1.0 4.0 0.00 0.00 0.00 71 1017.0
20260508152641 58 124 2.0 4.0 0.00 0.00 0.00 72 1017.0
20260508152139 57 123 2.0 5.0 0.00 0.00 0.00 74 1017.0
20260508151636 56 145 2.0 5.0 0.00 0.00 0.00 75 1017.0
20260508151136 56 227 1.0 3.0 0.00 0.00 0.00 77 1017.0
20260508150630 55 261 1.0 2.0 0.00 0.00 0.00 78 1017.0
20260508150116 55 264 1.0 2.0 0.00 0.00 0.00 77 1017.0
20260508145615 54 265 1.0 3.0 0.00 0.00 0.00 78 1017.0
20260508145114 54 265 1.0 3.0 0.00 0.00 0.00 79 1017.0
20260508144615 53 264 1.0 3.0 0.00 0.00 0.00 79 1017.0
20260508144110 53 264 1.0 3.0 0.00 0.00 0.00 80 1017.0
20260508143611 53 264 1.0 2.0 0.00 0.00 0.00 80 1017.0
20260508143111 53 263 0.0 2.0 0.00 0.00 0.00 80 1016.9
20260508142621 52 263 0.0 3.0 0.00 0.00 0.00 80 1016.8
20260508142107 52 263 1.0 3.0 0.00 0.00 0.00 80 1016.7
20260508141826 52 264 0.0 2.0 0.00 0.00 0.00 80 1016.6
20260508141106 52 264 1.0 3.0 0.00 0.00 0.00 80 1016.6
20260508140825 52 264 1.0 3.0 0.00 0.00 0.00 80 1016.6
20260508140105 52 294 0.0 3.0 0.00 0.00 0.00 80 1016.5
20260508135600 51 296 1.0 3.0 0.00 0.00 0.00 80 1016.4
20260508135101 51 296 2.0 4.0 0.00 0.00 0.00 80 1016.4
20260508134600 51 296 1.0 4.0 0.00 0.00 0.00 79 1016.4
20260508134323 51 240 1.0 3.0 0.00 0.00 0.00 79 1016.4
20260508133822 51 240 2.0 5.0 0.00 0.00 0.00 79 1016.3
20260508133100 51 242 2.0 5.0 0.00 0.00 0.00 78 1016.3
20260508132600 51 203 1.0 3.0 0.00 0.00 0.00 78 1016.3
20260508132319 51 202 0.0 2.0 0.00 0.00 0.00 78 1016.2
20260508131600 51 203 0.0 1.0 0.00 0.00 0.00 77 1016.2
20260508131326 51 203 0.0 3.0 0.00 0.00 0.00 77 1016.1
20260508130601 51 203 1.0 3.0 0.00 0.00 0.00 77 1016.1
20260508125558 52 191 1.0 3.0 0.00 0.00 0.00 76 1016.1
20260508125320 52 191 1.0 3.0 0.00 0.00 0.00 76 1016.1
20260508124558 52 191 1.0 3.0 0.00 0.00 0.00 76 1016.2
20260508124056 52 191 1.0 3.0 0.00 0.00 0.00 76 1016.1
20260508123553 52 192 1.0 3.0 0.00 0.00 0.00 75 1016.1
20260508123053 52 207 1.0 3.0 0.00 0.00 0.00 74 1016.1
20260508122551 52 207 0.0 3.0 0.00 0.00 0.00 74 1016.1
20260508122053 53 207 0.0 2.0 0.00 0.00 0.00 74 1016.1
20260508121551 53 207 0.0 3.0 0.00 0.00 0.00 74 1016.1
20260508121313 53 207 1.0 3.0 0.00 0.00 0.00 73 1016.1
20260508120817 53 207 1.0 3.0 0.00 0.00 0.00 73 1016.0
20260508120049 53 210 2.0 4.0 0.00 0.00 0.00 73 1016.0
20260508115547 54 211 2.0 4.0 0.00 0.00 0.00 72 1016.0
20260508115313 54 213 2.0 4.0 0.00 0.00 0.00 72 1015.9
20260508114547 54 211 1.0 4.0 0.00 0.00 0.00 72 1015.9
20260508114047 54 210 1.0 4.0 0.00 0.00 0.00 71 1015.8
20260508113544 54 211 1.0 3.0 0.00 0.00 0.00 71 1015.8
20260508113042 54 211 1.0 3.0 0.00 0.00 0.00 71 1015.7
20260508112542 55 211 0.0 1.0 0.00 0.00 0.00 71 1015.8
20260508112042 55 211 0.0 1.0 0.00 0.00 0.00 71 1015.8
20260508111539 55 211 0.0 1.0 0.00 0.00 0.00 71 1015.9
20260508111300 55 211 0.0 2.0 0.00 0.00 0.00 71 1015.8
20260508110800 55 211 0.0 2.0 0.00 0.00 0.00 71 1015.8
20260508110034 55 211 1.0 3.0 0.00 0.00 0.00 71 1015.7
20260508105533 55 211 1.0 3.0 0.00 0.00 0.00 71 1015.6
20260508105030 55 210 1.0 3.0 0.00 0.00 0.00 71 1015.6
20260508104530 55 210 0.0 2.0 0.00 0.00 0.00 71 1015.7
20260508104030 55 210 0.0 1.0 0.00 0.00 0.00 71 1015.6
20260508103528 55 210 0.0 2.0 0.00 0.00 0.00 70 1015.5
20260508103256 55 210 0.0 2.0 0.00 0.00 0.00 70 1015.5
20260508102526 56 210 0.0 2.0 0.00 0.00 0.00 69 1015.5
20260508102025 56 209 0.0 0.0 0.00 0.00 0.00 69 1015.4
20260508101745 56 210 0.0 0.0 0.00 0.00 0.00 69 1015.4
20260508101244 56 209 0.0 0.0 0.00 0.00 0.00 69 1015.3
20260508100521 56 209 0.0 2.0 0.00 0.00 0.00 69 1015.3
20260508100020 56 209 0.0 2.0 0.00 0.00 0.00 69 1015.3
20260508095519 56 209 0.0 2.0 0.00 0.00 0.00 69 1015.3
20260508095018 57 209 1.0 2.0 0.00 0.00 0.00 69 1015.2
20260508094518 57 210 1.0 3.0 0.00 0.00 0.00 68 1015.2
20260508094019 57 212 1.0 3.0 0.00 0.00 0.00 68 1015.2
20260508093518 57 212 0.0 2.0 0.00 0.00 0.00 68 1015.3
20260508093018 57 212 1.0 3.0 0.00 0.00 0.00 68 1015.3
20260508092517 58 212 2.0 4.0 0.00 0.00 0.00 68 1015.3
20260508092018 58 213 2.0 7.0 0.00 0.00 0.00 67 1015.3
20260508091518 58 226 2.0 7.0 0.00 0.00 0.00 67 1015.3
20260508091009 58 240 1.0 6.0 0.00 0.00 0.00 67 1015.3
20260508090510 58 265 1.0 6.0 0.00 0.00 0.00 66 1015.3
20260508090008 58 236 1.0 2.0 0.00 0.00 0.00 66 1015.3
20260508085508 58 236 1.0 3.0 0.00 0.00 0.00 66 1015.3
20260508085008 59 236 2.0 6.0 0.00 0.00 0.00 66 1015.4
20260508084506 59 238 3.0 7.0 0.00 0.00 0.00 65 1015.3
20260508084004 59 266 4.0 8.0 0.00 0.00 0.00 65 1015.3
20260508083502 59 265 5.0 8.0 0.00 0.00 0.00 65 1015.4
20260508083002 59 273 4.0 7.0 0.00 0.00 0.00 65 1015.3
20260508082501 59 252 2.0 6.0 0.00 0.00 0.00 65 1015.4
20260508082001 59 255 2.0 7.0 0.00 0.00 0.00 65 1015.5
20260508081501 59 262 3.0 8.0 0.00 0.00 0.00 65 1015.5
20260508080957 59 265 4.0 8.0 0.00 0.00 0.00 65 1015.5
20260508080451 59 266 4.0 8.0 0.00 0.00 0.00 65 1015.5
20260508080215 59 261 4.0 8.0 0.00 0.00 0.00 66 1015.5
20260508075448 60 269 5.0 8.0 0.00 0.00 0.00 65 1015.4
20260508074945 60 259 4.0 8.0 0.00 0.00 0.00 65 1015.4
20260508074444 60 268 3.0 6.0 0.00 0.00 0.00 65 1015.4
20260508074206 60 275 2.0 6.0 0.00 0.00 0.00 64 1015.4
20260508073444 60 229 1.0 3.0 0.00 0.00 0.00 62 1015.4
20260508072942 60 230 1.0 3.0 0.00 0.00 0.00 62 1015.4
20260508072442 61 232 2.0 4.0 0.00 0.00 0.00 63 1015.4
20260508071942 61 229 2.0 4.0 0.00 0.00 0.00 62 1015.3
20260508071921 61 215 2.0 4.0 0.00 0.00 0.00 62 1015.3
20260508071204 61 196 2.0 5.0 0.00 0.00 0.00 61 1015.3
20260508070440 61 195 3.0 5.0 0.00 0.00 0.00 61 1015.3
20260508065939 61 223 2.0 5.0 0.00 0.00 0.00 60 1015.3
20260508065440 61 211 2.0 4.0 0.00 0.00 0.00 60 1015.2
20260508064940 62 198 1.0 3.0 0.00 0.00 0.00 59 1015.2
20260508064438 62 196 1.0 3.0 0.00 0.00 0.00 59 1015.2
20260508063937 62 196 0.0 2.0 0.00 0.00 0.00 59 1015.2
20260508063438 62 196 0.0 2.0 0.00 0.00 0.00 59 1015.2
20260508063203 62 196 0.0 2.0 0.00 0.00 0.00 58 1015.2
20260508062434 62 196 0.0 2.0 0.00 0.00 0.00 58 1015.1
20260508061932 63 196 1.0 2.0 0.00 0.00 0.00 57 1015.2
20260508061433 63 196 1.0 2.0 0.00 0.00 0.00 57 1015.1
20260508060931 63 196 0.0 2.0 0.00 0.00 0.00 56 1015.1
20260508060430 63 196 1.0 3.0 0.00 0.00 0.00 56 1015.1
20260508055929 64 196 1.0 3.0 0.00 0.00 0.00 56 1015.1
20260508055626 64 198 1.0 3.0 0.00 0.00 0.00 56 1015.1
20260508055512 64 196 1.0 3.0 0.00 0.00 0.00 56 1015.1
20260508054425 64 198 1.0 4.0 0.00 0.00 0.00 56 1015.1
20260508053912 65 198 1.0 4.0 0.00 0.00 0.00 56 1015.1
20260508053412 65 196 0.0 2.0 0.00 0.00 0.00 55 1015.2
20260508053127 65 196 0.0 2.0 0.00 0.00 0.00 55 1015.1
20260508052413 65 196 0.0 2.0 0.00 0.00 0.00 55 1015.1
20260508051909 66 196 1.0 3.0 0.00 0.00 0.00 55 1015.2
20260508051409 66 196 2.0 5.0 0.00 0.00 0.00 54 1015.2
20260508051133 67 196 2.0 5.0 0.00 0.00 0.00 54 1015.2
20260508050410 67 214 1.0 5.0 0.00 0.00 0.00 53 1015.2
20260508045909 68 261 1.0 3.0 0.00 0.00 0.00 53 1015.2
20260508045409 68 279 1.0 2.0 0.00 0.00 0.00 53 1015.1
20260508044910 68 279 1.0 3.0 0.00 0.00 0.00 52 1015.1
20260508044408 69 279 1.0 3.0 0.00 0.00 0.00 52 1015.1